Regional Weather Roundup
Issued by NWS

Home | Current Version | Previous Version | Graphics & Text | Print | Product List | Glossary On
Versions: 1 2 3 4 5 6 7 8 9 10 11 12 13 14 15 16 17 18 19 20 21 22 23 24 25 26 27
000
ASUS45 KCYS 211510
RWRWY

WYOMING REGIONAL WEATHER ROUNDUP
NATIONAL WEATHER SERVICE CHEYENNE WY
900 AM MDT WED JUN 21 2017

NOTE:  "FAIR" INDICATES FEW OR NO CLOUDS BELOW 12,000 FEET
WITH NO SIGNIFICANT WEATHER AND/OR OBSTRUCTIONS TO VISIBILITY.

WYZ001-211600-
YELLOWSTONE NATIONAL PARK

CITY           SKY/WX    TMP DP  RH WIND       PRES   REMARKS
LK YELLOWSTONE   N/A     52  44  74 CALM      30.24S
W YELLOWSTONE  NOT AVBL

$$
WYZ002>013-054>058-071-098>099-211600-
NORTHERN WYOMING

CITY           SKY/WX    TMP DP  RH WIND       PRES   REMARKS
JACKSON        MOSUNNY   55  50  82 CALM      30.19S
CODY           FAIR      72  48  42 N13       30.04S
GREYBULL       FAIR      73  51  46 SW5       29.94R
WORLAND        FAIR      71  52  50 CALM      29.96R
SHERIDAN       FAIR      73  53  49 NW18G26   29.99R
BUFFALO        FAIR      72  47  40 NW24G36   30.02R
GILLETTE       FAIR      76  51  41 N20G26    29.95R
HULETT         FAIR      75  52  43 NW10      29.95R
NEWCASTLE      FAIR      75  50  41 NW12      29.92R

$$
WYZ014>020-022>026-101>103-211600-
CENTRAL WYOMING

CITY           SKY/WX    TMP DP  RH WIND       PRES   REMARKS
BIG PINEY      FAIR      65  45  48 E3        30.23S
PINEDALE       FAIR      64  46  52 NW3       30.24R
DUBOIS         FAIR      68  37  32 N15G21    30.16S
LANDER         FAIR      73  48  41 SE5       30.05R
RIVERTON       FAIR      74  44  34 VRB3      30.05S
CASPER         FAIR      78  44  29 SW12G20   30.03R
DOUGLAS        FAIR      78  51  38 NW12      29.99R

$$
WYZ021-027>030-104>119-211600-
SOUTHERN WYOMING

CITY           SKY/WX    TMP DP  RH WIND       PRES   REMARKS
EVANSTON       FAIR      67  45  45 CALM      30.26R
KEMMERER         N/A     68  41  37 W7        30.26S
FORT BRIDGER   FAIR      75  40  28 W8        30.27R
ROCK SPRINGS   FAIR      71  39  31 SW12      30.21S
DIXON          FAIR      69  43  38 CALM      30.25S
RAWLINS        FAIR      74  38  27 W16       30.20R
SARATOGA       FAIR      73  41  31 NW10      30.23S
LARAMIE        FAIR      77  37  23 W24G31    30.20R
CHEYENNE       FAIR      79  41  25 W22G29    30.11R
TORRINGTON     FAIR      81  47  30 W8        29.92S
PINE BLUFFS    FAIR      82  37  20 W23G30    30.02R

$$




USA.gov is the U.S. government's official web portal to all federal, state and local government web resources and services.